GORIZONT 32 [-]

Last updated on Jan. 22, 2020, 4:37 a.m. UTC

1 23880U 96034A   20021.21160413 -.00000056  00000-0  00000-0 0  9998
2 23880  14.3953  13.5087 0013294 319.4301  34.8415  1.00218413 86618
UTC
Height (km)
Latitude
Longitude
Inclination
Orbital Period
UTC large
Height (km)
Speed (km/s)
/
Latitude / Longitude
Inclination (degrees)
Orbital Period (minutes)
Azimuth
Elevation
Range (km)
Doppler Factor
iOS Compass Heading
iOS Angle

Next 30 passes for location: Hong Kong

Rise time Rise Azimuth (degrees) Set time Set Azimuth (degrees) Duration Max altitude (degrees)

No matching passes for this satellites